TimeCST,TemperatureF,Dew PointF,Humidity,Sea Level PressureIn,VisibilityMPH,Wind Direction,Wind SpeedMPH,Gust SpeedMPH,PrecipitationIn,Events,Conditions,WindDirDegrees,DateUTC
12:15 AM,43.5,33.6,68,30.15,10.0,South,10.4,-,N/A,,Clear,170,2012-11-17 06:15:00
12:35 AM,43.2,33.8,70,30.15,10.0,South,11.5,18.4,N/A,,Clear,180,2012-11-17 06:35:00
12:55 AM,42.8,33.8,70,30.14,10.0,South,11.5,-,N/A,,Clear,180,2012-11-17 06:55:00
1:15 AM,42.6,33.8,71,30.14,10.0,South,13.8,-,N/A,,Clear,180,2012-11-17 07:15:00
1:35 AM,42.4,33.8,71,30.14,10.0,South,13.8,-,N/A,,Clear,180,2012-11-17 07:35:00
1:55 AM,42.1,33.8,72,30.13,10.0,South,13.8,-,N/A,,Clear,180,2012-11-17 07:55:00
2:15 AM,41.7,33.3,72,30.13,10.0,South,12.7,-,N/A,,Clear,180,2012-11-17 08:15:00
2:35 AM,41.7,33.3,72,30.12,10.0,South,12.7,-,N/A,,Clear,180,2012-11-17 08:35:00
2:55 AM,41.9,32.9,70,30.12,10.0,South,13.8,18.4,N/A,,Clear,170,2012-11-17 08:55:00
3:15 AM,41.4,32.9,72,30.11,10.0,South,11.5,-,N/A,,Clear,170,2012-11-17 09:15:00
3:35 AM,42.8,33.8,70,30.10,10.0,South,11.5,-,N/A,,Clear,180,2012-11-17 09:35:00
3:55 AM,43.0,33.3,69,30.09,10.0,South,12.7,18.4,N/A,,Clear,180,2012-11-17 09:55:00
4:15 AM,43.7,33.3,67,30.10,10.0,South,16.1,19.6,N/A,,Clear,180,2012-11-17 10:15:00
4:35 AM,43.7,33.1,66,30.10,10.0,South,16.1,20.7,N/A,,Clear,180,2012-11-17 10:35:00
4:55 AM,43.5,32.9,66,30.09,10.0,South,13.8,20.7,N/A,,Clear,180,2012-11-17 10:55:00
5:15 AM,42.8,32.9,68,30.09,10.0,South,12.7,-,N/A,,Clear,180,2012-11-17 11:15:00
5:35 AM,42.4,32.9,69,30.10,10.0,South,11.5,-,N/A,,Clear,180,2012-11-17 11:35:00
5:55 AM,42.3,32.5,68,30.09,10.0,South,11.5,-,N/A,,Clear,180,2012-11-17 11:55:00
6:15 AM,42.6,32.5,68,30.09,10.0,South,12.7,-,N/A,,Clear,180,2012-11-17 12:15:00
6:35 AM,42.1,32.4,68,30.09,10.0,South,12.7,-,N/A,,Clear,180,2012-11-17 12:35:00
6:55 AM,41.9,32.2,68,30.08,10.0,South,13.8,20.7,N/A,,Clear,180,2012-11-17 12:55:00
7:15 AM,41.2,32.0,70,30.08,10.0,South,13.8,18.4,N/A,,Clear,180,2012-11-17 13:15:00
7:35 AM,41.0,32.0,70,30.08,10.0,South,15.0,20.7,N/A,,Clear,180,2012-11-17 13:35:00
7:55 AM,42.1,32.0,67,30.08,10.0,South,16.1,21.9,N/A,,Clear,180,2012-11-17 13:55:00
8:15 AM,42.3,32.0,67,30.08,10.0,South,17.3,21.9,N/A,,Clear,180,2012-11-17 14:15:00
8:35 AM,42.3,32.0,67,30.09,10.0,South,17.3,-,N/A,,Clear,190,2012-11-17 14:35:00
8:55 AM,44.1,32.2,63,30.10,10.0,South,17.3,23.0,N/A,,Clear,190,2012-11-17 14:55:00
9:15 AM,45.0,32.2,61,30.10,10.0,South,17.3,24.2,N/A,,Clear,190,2012-11-17 15:15:00
9:35 AM,44.1,32.2,63,30.10,10.0,South,16.1,23.0,N/A,,Clear,190,2012-11-17 15:35:00
9:55 AM,46.6,32.5,58,30.10,10.0,South,19.6,-,N/A,,Clear,190,2012-11-17 15:55:00
10:15 AM,47.5,32.9,57,30.09,10.0,South,19.6,25.3,N/A,,Clear,190,2012-11-17 16:15:00
10:35 AM,49.3,33.6,55,30.09,10.0,South,19.6,25.3,N/A,,Clear,190,2012-11-17 16:35:00
11:55 AM,53.2,34.5,49,30.06,10.0,SSW,17.3,23.0,N/A,,Clear,200,2012-11-17 17:55:00
12:15 PM,54.3,34.7,48,30.05,10.0,SSW,17.3,23.0,N/A,,Clear,200,2012-11-17 18:15:00
12:35 PM,54.9,34.5,46,30.04,10.0,South,16.1,-,N/A,,Clear,190,2012-11-17 18:35:00
12:55 PM,55.6,34.5,45,30.03,10.0,South,17.3,-,N/A,,Clear,190,2012-11-17 18:55:00
1:15 PM,57.0,34.7,43,30.02,10.0,South,18.4,23.0,N/A,,Clear,190,2012-11-17 19:15:00
1:35 PM,57.4,34.3,42,30.01,10.0,South,20.7,25.3,N/A,,Clear,170,2012-11-17 19:35:00
1:55 PM,57.7,33.8,41,30.01,10.0,South,19.6,-,N/A,,Clear,180,2012-11-17 19:55:00
2:15 PM,58.1,33.4,39,30.02,10.0,South,17.3,-,N/A,,Clear,190,2012-11-17 20:15:00
2:35 PM,58.3,33.8,40,30.02,10.0,South,13.8,-,N/A,,Clear,190,2012-11-17 20:35:00
2:55 PM,58.3,33.4,39,30.02,10.0,SSW,17.3,21.9,N/A,,Clear,200,2012-11-17 20:55:00
3:15 PM,58.6,33.6,39,30.02,10.0,SSW,18.4,23.0,N/A,,Clear,200,2012-11-17 21:15:00
3:35 PM,57.7,33.8,41,30.03,10.0,South,18.4,23.0,N/A,,Clear,180,2012-11-17 21:35:00
3:55 PM,56.3,33.8,43,30.03,10.0,South,17.3,21.9,N/A,,Clear,190,2012-11-17 21:55:00
4:15 PM,55.6,34.2,44,30.03,10.0,South,10.4,-,N/A,,Clear,180,2012-11-17 22:15:00
4:35 PM,55.8,34.7,45,30.04,10.0,South,10.4,-,N/A,,Clear,170,2012-11-17 22:35:00
4:55 PM,55.4,34.5,45,30.04,10.0,South,10.4,17.3,N/A,,Clear,180,2012-11-17 22:55:00
5:15 PM,53.4,34.3,48,30.03,10.0,South,9.2,-,N/A,,Clear,170,2012-11-17 23:15:00
5:35 PM,51.6,34.0,51,30.03,10.0,South,10.4,-,N/A,,Clear,170,2012-11-17 23:35:00
5:55 PM,50.7,33.8,52,30.04,10.0,SSE,9.2,-,N/A,,Clear,160,2012-11-17 23:55:00
6:15 PM,48.9,33.6,56,30.04,10.0,SSE,8.1,-,N/A,,Clear,160,2012-11-18 00:15:00
6:35 PM,47.5,33.4,58,30.04,10.0,South,8.1,-,N/A,,Clear,170,2012-11-18 00:35:00
6:55 PM,46.4,33.3,60,30.04,10.0,South,8.1,-,N/A,,Clear,180,2012-11-18 00:55:00
7:15 PM,45.9,33.4,62,30.04,10.0,SSW,8.1,-,N/A,,Clear,200,2012-11-18 01:15:00
7:35 PM,45.5,33.1,62,30.04,10.0,SSW,8.1,-,N/A,,Clear,200,2012-11-18 01:35:00
7:55 PM,43.5,32.5,65,30.04,10.0,SSW,5.8,-,N/A,,Clear,210,2012-11-18 01:55:00
8:15 PM,44.6,33.1,64,30.04,10.0,SSW,6.9,-,N/A,,Clear,200,2012-11-18 02:15:00
8:35 PM,42.8,32.4,67,30.03,10.0,SSW,4.6,-,N/A,,Clear,210,2012-11-18 02:35:00
8:55 PM,44.2,32.7,64,30.03,10.0,SSW,5.8,-,N/A,,Clear,200,2012-11-18 02:55:00
9:15 PM,42.4,32.9,69,30.04,10.0,SSE,6.9,-,N/A,,Clear,150,2012-11-18 03:15:00
9:35 PM,42.3,32.4,68,30.04,10.0,SE,8.1,-,N/A,,Clear,140,2012-11-18 03:35:00
9:55 PM,41.2,32.0,70,30.04,10.0,SSE,9.2,-,N/A,,Clear,160,2012-11-18 03:55:00
10:15 PM,41.0,32.2,71,30.04,10.0,South,9.2,-,N/A,,Clear,170,2012-11-18 04:15:00
10:35 PM,40.1,32.0,73,30.04,10.0,SSE,8.1,-,N/A,,Clear,150,2012-11-18 04:35:00
10:55 PM,39.2,32.0,75,30.04,10.0,South,5.8,-,N/A,,Clear,180,2012-11-18 04:55:00
11:15 PM,39.0,32.0,76,30.03,10.0,South,5.8,-,N/A,,Clear,180,2012-11-18 05:15:00
11:35 PM,37.9,32.0,79,30.03,10.0,SSE,6.9,-,N/A,,Clear,160,2012-11-18 05:35:00
11:55 PM,38.5,32.0,78,30.03,10.0,South,6.9,-,N/A,,Clear,190,2012-11-18 05:55:00